This demonstration page uses our WeatherBlox Daily Observations layout. Learn more.

Left ArrowRight Arrow

41.86663, -103.66717

Hourly Observations for July 13, 2018

Temp ( °F °C ) Dew Point ( °F °C ) Humidity (%) Winds ( mph kmh ) Pressure ( in mb ) Visibility ( mi km ) Precip ( " mm )
12:53 am 00:53 Cloudy 69 20.6 66 18.9 90 90 N N/A 30 1016 10 16.0934 N/A
1:53 am 01:53 Mostly Cloudy 67 19.4 65 18.3 93 93 NNE 5 7 30 1016 10 16.0934 N/A
2:53 am 02:53 Cloudy 67 19.4 65 18.3 93 93 NW 7 11 30 1016 10 16.0934 N/A
3:53 am 03:53 Cloudy 65 18.3 65 18.3 100 100 N 7 11 30.04 1017 10 16.0934 N/A
4:53 am 04:53 Cloudy 64 17.8 64 17.8 100 100 WNW 5 7 30.06 1018 9 14.48406 N/A
5:22 am 05:22 Cloudy 64 18 64 18 100 100 NNW 6 9 30 1016 10 16.0934 N/A
5:53 am 05:53 Cloudy 65 18.3 64 17.8 97 97 NNW 5 7 30.06 1018 10 16.0934 N/A
6:53 am 06:53 Cloudy 67 19.4 65 18.3 93 93 NW 3 6 30.09 1019 10 16.0934 N/A
7:53 am 07:53 Mostly Cloudy 69 20.6 65 18.3 87 87 N N/A 30.11 1020 10 16.0934 N/A
8:06 am 08:06 Cloudy 70 21.1 65 18.3 84 84 N N/A 30.03 1017 10 16.0934 N/A
8:53 am 08:53 Cloudy 70 21.1 65 18.3 84 84 SE 5 7 30.12 1020 10 16.0934 N/A
9:00 am 09:00 Cloudy 70 21.1 65 18.3 84 84 SE 6 9 30.03 1017 10 16.0934 N/A
9:53 am 09:53 Mostly Cloudy 73 22.8 65 18.3 76 76 N N/A 30.11 1020 10 16.0934 N/A
10:14 am 10:14 Partly Cloudy 73 22.8 65 18.3 76 76 S 5 7 30 1016 10 16.0934 N/A
10:48 am 10:48 Mostly Cloudy 75 24 66 19 74 74 VRB 3 6 30 1016 10 16.0934 N/A
10:53 am 10:53 Mostly Cloudy 76 24.4 66 18.9 72 72 VRB 5 7 30.11 1020 10 16.0934 N/A
11:06 am 11:06 Partly Cloudy 75 24 66 19 74 74 undefined N/A 30 1016 10 16.0934 N/A
11:53 am 11:53 Sunny 78 25.6 66 18.9 67 67 VRB 3 6 30.09 1019 10 16.0934 N/A
12:53 pm 12:53 Sunny 81 27.2 66 18.9 61 61 ESE 7 11 30.07 1018 10 16.0934 N/A
1:53 pm 13:53 Sunny 84 28.9 66 18.9 55 55 E 7 11 30.05 1018 10 16.0934 N/A
2:53 pm 14:53 Sunny 86 30 65 18.3 49 49 ESE 8 13 30.04 1017 10 16.0934 N/A
3:53 pm 15:53 Sunny 88 31.1 61 16.1 40 40 E 7 11 30.01 1016 10 16.0934 N/A
4:53 pm 16:53 Sunny 88 31.1 62 16.7 42 42 ESE 10 17 30 1016 10 16.0934 N/A
5:53 pm 17:53 Sunny 87 30.6 62 16.7 43 43 ESE 12 19 29.98 1015 10 16.0934 N/A
6:53 pm 18:53 Sunny 85 29.4 63 17.2 48 48 ESE 12 19 29.97 1015 10 16.0934 N/A
7:53 pm 19:53 Sunny 80 26.7 65 18.3 60 60 ESE 8 13 29.99 1016 10 16.0934 N/A
8:53 pm 20:53 Clear 76 24.4 65 18.3 69 69 ESE 9 15 30.02 1017 10 16.0934 N/A
9:53 pm 21:53 Clear 72 22.2 65 18.3 79 79 ESE 8 13 30.04 1017 10 16.0934 N/A
10:53 pm 22:53 Clear 71 21.7 66 18.9 84 84 ESE 8 13 30.04 1017 10 16.0934 N/A
11:53 pm 23:53 Clear 69 20.6 66 18.9 90 90 ESE 12 19 30.04 1017 10 16.0934 N/A

Powered by AerisWeather